Location: Steilacoom
(47.1700°N, 122.5700°W)
Time: 06:48:51
(UTC-07:00)

ISS - Visible Passes

Search period start: 19 October 2018 00:00
Search period end: 29 October 2018 00:00
Orbit: 403 x 408 km, 51.6° (Epoch: 19 October)

Date Brightness Start Highest point End Pass type
(mag) Time Alt. Az. Time Alt. Az. Time Alt. Az.
25 Oct -0.4 06:40:17 10° SSE 06:41:04 11° SE 06:41:52 10° ESE visible
27 Oct -1.4 06:30:33 10° SSW 06:33:10 22° SE 06:35:47 10° E visible
28 Oct -0.9 05:39:42 10° SSE 05:41:21 13° SE 05:42:59 10° ESE visible
28 Oct -3.6 07:14:05 10° WSW 07:17:21 74° SSE 07:20:38 10° ENE visible
